Location: Praha
(50.0830°N, 14.4670°E)
Time: 10:42:16
(UTC+02:00)

ISS - Pass Details

Date: 19 May 2019
Orbit: 407 x 410 km, 51.6° (Epoch: 21 May)

Event Time Altitude Azimuth Distance (km) Brightness Sun altitude
Rises 02:05:10 0° 284° (WNW) 2,338 0.0 -18.7°
Reaches altitude 10° 02:07:16 10° 285° (WNW) 1,476 -1.0 -18.6°
Maximum altitude 02:10:34 83° 12° (NNE) 417 -3.8 -18.5°
Drops below altitude 10° 02:13:53 10° 103° (ESE) 1,473 -0.9 -18.3°
Sets 02:15:58 0° 104° (ESE) 2,333 0.1 -18.2°
